#timestamp,LO_Frequency,Hit,StdDev 
1623690015.4,286047002.8,P
1623690035.2,286047000.0,N
1623690055.1,286047001.2,N
1623690056.0,286047001.2,N
1623690075.8,286046998.4,N
1623690095.7,286046996.6,N
1623690115.5,286046996.2,N
1623690135.3,286046993.4,N
1623690155.2,286046992.5,N
1623690175.0,286046991.1,N
1623690175.9,286046991.1,N
1623690195.8,286046991.4,N
1623690215.6,286046991.2,N
1623690235.4,286046989.3,N
1623690255.3,286046987.3,N
1623690275.1,286046988.2,N
1623690295.8,286046987.1,N
1623690315.7,286046985.4,N
1623690335.5,286046988.4,N
1623690355.4,286046983.9,N
1623690375.2,286046985.2,N
1623690395.0,286046980.7,N
1623690395.9,286046980.7,N
1623690415.8,286046977.4,N
1623690435.6,286046976.5,N
1623690455.4,286046974.9,N
1623690475.3,286046973.5,N
1623690495.1,286046970.5,Y
1623690515.9,286046978.0,P
1623690535.7,286046978.2,P
1623690555.5,286046978.6,P
1623690575.4,286046975.9,Y
1623690595.2,286046994.8,P
1623690615.1,286046991.7,N
1623690616.0,286046991.7,N
1623690635.8,286046993.0,N
1623690655.6,286046990.2,N
1623690675.5,286046991.2,N
1623690695.3,286046992.8,N
1623690715.2,286046990.1,N
1623690735.9,286046989.1,N
1623690755.7,286046986.9,Y
1623690775.6,286046999.0,P
1623690795.4,286047002.5,N
1623690815.2,286046998.5,N
1623690835.1,286047000.1,N
1623690836.0,286047000.1,N
1623690855.8,286047000.5,N
1623690875.7,286046999.6,N
1623690895.5,286046998.4,N
1623690915.3,286046998.4,N
1623690935.2,286046999.1,N
1623690955.0,286046998.6,N
1623690955.9,286046998.6,N
1623690975.8,286046998.4,N
1623690995.6,286046998.7,N
1623691015.4,286047001.0,N
1623691035.3,286047003.0,N
1623691055.1,286047007.3,N
1623691075.8,286047004.7,N
1623691095.7,286047004.6,N
1623691115.5,286047006.4,N
1623691135.4,286047007.8,N
1623691155.2,286047010.3,N
1623691175.0,286047009.6,N
1623691175.9,286047009.6,N
1623691195.8,286047013.9,Y
1623691215.6,286047008.1,P
1623691235.5,286047007.8,N
1623691255.3,286047009.5,P
1623691275.1,286047011.9,Y
1623691295.9,286047001.7,P
1623691315.7,286047003.7,N
1623691335.5,286047004.0,N
1623691355.4,286047004.0,N
1623691375.2,286047009.1,Y
1623691395.1,286047003.8,P
1623691396.0,286047003.8,P
1623691415.8,286047005.4,P
1623691435.6,286047004.4,Y
1623691455.5,286046996.7,P
1623691475.3,286046997.8,N
1623691495.2,286046999.4,N
1623691515.9,286047005.1,N
1623691535.7,286047002.9,N
1623691555.6,286047006.5,N
1623691575.4,286047003.1,N
1623691595.3,286047003.3,N
1623691615.1,286047007.0,N
1623691616.0,286047007.0,N
1623691635.8,286047006.1,N
1623691655.7,286047006.3,N
1623691675.5,286047009.1,N
1623691695.4,286047008.1,N
1623691715.2,286047008.3,N
1623691735.0,286047007.9,N
1623691735.9,286047007.9,N
1623691755.8,286047011.0,Y
1623691775.6,286047012.1,P
1623691795.5,286047013.3,P
1623691815.3,286047014.1,P
1623691835.1,286047016.0,Y
1623691855.9,286047009.1,P
1623691875.7,286047006.8,P
1623691895.6,286047010.8,P
1623691915.4,286047008.3,Y
1623691935.2,286046999.2,P
1623691955.1,286046998.9,N
1623691956.0,286046998.9,N
1623691975.8,286046998.4,N
1623691995.7,286047000.6,N
1623692015.5,286047003.1,N
1623692035.3,286047007.3,N
1623692055.2,286047004.5,N
1623692075.0,286047007.7,N
1623692075.9,286047007.7,N
1623692095.7,286047012.3,Y
1623692115.6,286047006.0,P
1623692135.4,286047006.0,P
1623692155.3,286047004.7,P
1623692175.1,286047008.3,Y
1623692195.8,286047008.7,P
1623692215.7,286047005.2,N
1623692235.5,286047007.2,P
1623692255.4,286047004.9,Y
1623692275.2,286046999.1,P
1623692295.0,286047000.8,N
1623692295.9,286047000.8,N
1623692315.8,286047001.3,N
1623692335.6,286047004.5,N
1623692355.5,286047007.2,N
1623692375.3,286047007.0,N
1623692395.1,286047007.3,N
1623692415.9,286047006.5,N
1623692435.7,286047012.1,Y
1623692455.5,286047006.3,P
1623692475.4,286047007.1,P
1623692495.2,286047008.5,P
1623692515.1,286047008.9,Y
1623692516.0,286047008.9,P
1623692535.8,286047000.0,N
1623692555.6,286047004.2,N
1623692575.5,286047007.3,N
1623692595.3,286047003.3,N
1623692615.2,286047005.3,N
1623692635.9,286047006.7,N
1623692655.7,286047007.3,N
1623692675.6,286047010.1,Y
1623692695.4,286047000.2,P
1623692715.3,286047001.0,N
1623692735.1,286046997.1,N
1623692736.0,286046997.1,N
1623692755.8,286046998.9,N
1623692775.7,286046997.9,N
1623692795.5,286046999.8,N
1623692815.3,286047005.8,N
1623692835.2,286047003.3,N
1623692855.0,286047008.9,N
1623692855.9,286047008.9,N
1623692875.8,286047008.9,N
1623692895.6,286047004.9,N
1623692915.4,286047006.1,N
1623692935.3,286047008.1,N
1623692955.1,286047008.0,N
1623692975.9,286047007.2,N
1623692995.7,286047010.2,N
1623693015.5,286047012.5,N
1623693035.4,286047016.0,Y
1623693055.2,286047011.2,P
1623693075.0,286047013.7,P
1623693075.9,286047013.7,P
1623693095.8,286047009.6,N
1623693115.6,286047006.0,N
1623693135.5,286046997.0,N
1623693155.3,286046992.3,N
1623693175.1,286046989.9,N
1623693195.9,286046986.7,N
1623693215.7,286046984.8,N
1623693235.5,286046983.6,N
1623693255.4,286046980.1,N
1623693275.2,286046978.2,N
1623693295.1,286046974.1,N
1623693296.0,286046974.1,N
1623693315.8,286046973.0,N
1623693335.6,286046974.9,N
1623693355.5,286046974.3,N
1623693375.3,286046976.7,N
1623693395.1,286046976.6,N
1623693415.9,286046976.6,N
1623693435.7,286046974.2,N
1623693455.6,286046977.0,N
1623693475.4,286046976.1,N
1623693495.2,286046976.2,N
1623693515.1,286046978.6,N
1623693516.0,286046978.6,N
1623693535.8,286046977.4,N
1623693555.6,286046979.0,N
1623693575.5,286046979.3,N
1623693595.3,286046980.8,N
